Date String (YYYY-MM-DD hh:mm:ss) UTC,Instrument flags,Ambient pressure (hPa),Sample flow (lpm),Bypass flow (lpm),Sample temperature (°C),Ambient temperature (°C),ASC tube jacket temperature (°C),LED temperature (°C),Box temperature (°C),Sample RH (%),Span deviation,Mass concentration (μg/m³),Mass concentration (μg/m³),Mass concentration (μg/m³)
DateTimeUTC,F1_M11,P_M11,Q1_M11,Q2_M11,T1_M11,T2_M11,T3_M11,T4_M11,T5_M11,U1_M11,ZSPAN_M11,X0_M11,X2_M11,X1_M11
2022-06-19 08:00:00,,0823.3,5.00,0.00,29.4,27.8,00.0,38.3,31.3,22.3,0000.0,0009.17,0003.65,0002.24
2022-06-19 08:01:00,,0823.3,5.01,0.00,29.4,27.9,00.0,38.3,31.3,22.3,0000.0,0009.17,0003.65,0002.25
2022-06-19 08:02:00,,0823.4,5.00,0.00,29.4,28.0,00.0,38.3,31.3,22.3,0000.0,0008.87,0003.72,0002.27
2022-06-19 08:03:00,,0823.4,4.99,0.00,29.4,28.1,00.0,38.3,31.3,22.3,0000.0,0008.40,0003.73,0002.28
2022-06-19 08:04:00,,0823.4,5.00,0.00,29.4,28.2,00.0,38.3,31.3,22.2,0000.0,0008.43,0003.73,0002.29
2022-06-19 08:05:00,,0823.4,5.00,0.00,29.5,28.3,00.0,38.3,31.4,22.2,0000.0,0008.25,0003.71,0002.29
2022-06-19 08:06:00,,0823.4,5.00,0.00,29.5,28.4,00.0,38.3,31.4,22.1,0000.0,0007.95,0003.72,0002.30
2022-06-19 08:07:00,,0823.3,5.00,0.00,29.5,28.5,00.0,38.3,31.4,22.1,0000.0,0007.99,0003.72,0002.30
2022-06-19 08:08:00,,0823.3,4.99,0.00,29.5,28.5,00.0,38.3,31.5,22.1,0000.0,0008.08,0003.75,0002.32
2022-06-19 08:09:00,,0823.4,5.00,0.00,29.6,28.6,00.0,38.3,31.5,22.0,0000.0,0008.14,0003.77,0002.32
2022-06-19 08:10:00,,0823.4,5.01,0.00,29.6,28.7,00.0,38.4,31.5,22.0,0000.0,0008.12,0003.77,0002.30
2022-06-19 08:11:00,,0823.4,5.01,0.00,29.6,28.7,00.0,38.4,31.6,22.0,0000.0,0008.80,0003.78,0002.30
2022-06-19 08:12:00,,0823.3,5.00,0.00,29.6,28.7,00.0,38.4,31.6,22.0,0000.0,0009.02,0003.74,0002.29
2022-06-19 08:13:00,,0823.3,4.99,0.00,29.7,28.8,00.0,38.4,31.6,22.0,0000.0,0008.98,0003.70,0002.28
2022-06-19 08:14:00,,0823.4,5.01,0.00,29.7,28.7,00.0,38.4,31.6,22.0,0000.0,0008.92,0003.69,0002.26
2022-06-19 08:15:00,,0823.4,4.98,0.00,29.6,28.0,00.0,38.3,31.4,22.1,0000.0,0009.00,0003.73,0002.24
2022-06-19 08:16:00,,0823.3,5.00,0.00,29.6,27.5,00.0,38.3,31.3,22.1,0000.0,0009.17,0003.79,0002.24
2022-06-19 08:17:00,,0823.3,5.02,0.00,29.5,27.4,00.0,38.3,31.2,22.2,0000.0,0009.08,0003.76,0002.23
2022-06-19 08:18:00,,0823.3,5.01,0.00,29.5,27.5,00.0,38.3,31.2,22.2,0000.0,0008.97,0003.73,0002.21
2022-06-19 08:19:00,,0823.4,5.00,0.00,29.4,27.6,00.0,38.3,31.2,22.3,0000.0,0009.09,0003.78,0002.23
2022-06-19 08:20:00,,0823.4,5.00,0.00,29.4,27.7,00.0,38.3,31.3,22.4,0000.0,0009.18,0003.82,0002.25
2022-06-19 08:21:00,,0823.3,4.99,0.00,29.4,27.9,00.0,38.3,31.3,22.3,0000.0,0009.15,0003.82,0002.27
2022-06-19 08:22:00,,0823.3,5.01,0.00,29.4,28.0,00.0,38.3,31.3,22.3,0000.0,0008.51,0003.80,0002.28
2022-06-19 08:23:00,,0823.3,5.00,0.00,29.5,28.1,00.0,38.3,31.3,22.2,0000.0,0008.57,0003.88,0002.29
2022-06-19 08:24:00,,0823.3,5.00,0.00,29.5,28.2,00.0,38.3,31.4,22.2,0000.0,0008.61,0003.92,0002.29
2022-06-19 08:25:00,,0823.3,5.00,0.00,29.5,28.3,00.0,38.3,31.4,22.1,0000.0,0008.65,0003.92,0002.31
2022-06-19 08:26:00,,0823.3,5.00,0.00,29.5,28.4,00.0,38.3,31.4,22.1,0000.0,0008.63,0003.92,0002.32
2022-06-19 08:27:00,,0823.3,5.01,0.00,29.5,28.5,00.0,38.3,31.4,22.1,0000.0,0008.49,0003.87,0002.30
2022-06-19 08:28:00,,0823.4,4.99,0.00,29.5,28.5,00.0,38.3,31.5,22.0,0000.0,0008.57,0003.88,0002.30
2022-06-19 08:29:00,,0823.4,5.00,0.00,29.6,28.6,00.0,38.4,31.5,22.0,0000.0,0008.70,0003.88,0002.29
2022-06-19 08:30:00,,0823.4,5.00,0.00,29.6,28.6,00.0,38.4,31.5,22.0,0000.0,0008.82,0003.87,0002.27
2022-06-19 08:31:00,,0823.4,5.01,0.00,29.6,28.7,00.0,38.4,31.6,21.9,0000.0,0008.99,0003.87,0002.26
2022-06-19 08:32:00,,0823.4,5.00,0.00,29.6,28.7,00.0,38.4,31.6,21.9,0000.0,0009.13,0003.92,0002.25
2022-06-19 08:33:00,,0823.4,5.01,0.00,29.7,28.8,00.0,38.4,31.6,21.9,0000.0,0009.04,0003.92,0002.23
2022-06-19 08:34:00,,0823.4,5.00,0.00,29.7,28.5,00.0,38.4,31.6,22.0,0000.0,0008.76,0003.85,0002.22
2022-06-19 08:35:00,,0823.4,5.00,0.00,29.6,27.7,00.0,38.3,31.4,22.0,0000.0,0008.74,0003.84,0002.23
2022-06-19 08:36:00,,0823.4,4.99,0.00,29.6,27.4,00.0,38.3,31.3,22.0,0000.0,0008.93,0003.88,0002.25
2022-06-19 08:37:00,,0823.3,5.00,0.00,29.5,27.4,00.0,38.3,31.2,22.1,0000.0,0009.32,0003.88,0002.26
2022-06-19 08:38:00,,0823.3,4.99,0.00,29.4,27.5,00.0,38.3,31.2,22.1,0000.0,0009.30,0003.86,0002.27
2022-06-19 08:39:00,,0823.3,5.00,0.00,29.4,27.6,00.0,38.3,31.2,22.2,0000.0,0009.14,0003.84,0002.31
2022-06-19 08:40:00,,0823.2,5.00,0.00,29.4,27.7,00.0,38.3,31.3,22.3,0000.0,0008.98,0003.84,0002.36
2022-06-19 08:41:00,,0823.2,5.00,0.00,29.4,27.9,00.0,38.3,31.3,22.3,0000.0,0008.80,0003.83,0002.37
2022-06-19 08:42:00,,0823.3,4.99,0.00,29.4,28.0,00.0,38.3,31.3,22.3,0000.0,0008.62,0003.81,0002.38
2022-06-19 08:43:00,,0823.2,4.99,0.00,29.4,28.1,00.0,38.3,31.3,22.2,0000.0,0008.75,0003.86,0002.40
2022-06-19 08:44:00,,0823.2,5.00,0.00,29.5,28.2,00.0,38.3,31.3,22.1,0000.0,0008.83,0003.87,0002.42
2022-06-19 08:45:00,,0823.2,5.00,0.00,29.5,28.3,00.0,38.3,31.4,22.0,0000.0,0009.18,0003.87,0002.44
2022-06-19 08:46:00,,0823.2,5.00,0.00,29.5,28.4,00.0,38.3,31.4,22.0,0000.0,0009.46,0003.85,0002.43
2022-06-19 08:47:00,,0823.2,4.99,0.00,29.5,28.4,00.0,38.3,31.4,22.0,0000.0,0009.37,0003.87,0002.43
2022-06-19 08:48:00,,0823.2,5.00,0.00,29.5,28.5,00.0,38.3,31.5,22.0,0000.0,0009.01,0003.90,0002.43
2022-06-19 08:49:00,,0823.2,5.00,0.00,29.5,28.6,00.0,38.4,31.5,22.0,0000.0,0008.99,0003.92,0002.43
2022-06-19 08:50:00,,0823.3,5.01,0.00,29.6,28.6,00.0,38.4,31.5,22.0,0000.0,0009.09,0003.93,0002.40
2022-06-19 08:51:00,,0823.2,5.00,0.00,29.6,28.7,00.0,38.4,31.5,22.0,0000.0,0009.18,0003.94,0002.36
2022-06-19 08:52:00,,0823.2,5.01,0.00,29.6,28.7,00.0,38.4,31.6,22.0,0000.0,0009.17,0003.93,0002.37
2022-06-19 08:53:00,,0823.2,5.01,0.00,29.6,28.7,00.0,38.4,31.6,22.0,0000.0,0009.04,0003.88,0002.38
2022-06-19 08:54:00,,0823.1,4.99,0.00,29.7,28.8,00.0,38.4,31.6,21.9,0000.0,0008.74,0003.78,0002.39
2022-06-19 08:55:00,,0823.1,5.00,0.00,29.7,28.3,00.0,38.4,31.5,22.0,0000.0,0008.51,0003.73,0002.40
2022-06-19 08:56:00,,0823.1,5.00,0.00,29.6,27.6,00.0,38.3,31.3,22.0,0000.0,0008.09,0003.72,0002.40
2022-06-19 08:57:00,,0823.2,5.00,0.00,29.6,27.4,00.0,38.3,31.3,22.1,0000.0,0007.65,0003.68,0002.40
2022-06-19 08:58:00,,0823.2,5.00,0.00,29.5,27.4,00.0,38.3,31.2,22.2,0000.0,0007.44,0003.60,0002.40
2022-06-19 08:59:00,,0823.2,5.01,0.00,29.5,27.5,00.0,38.3,31.2,22.2,0000.0,0007.28,0003.53,0002.41
